Location: Grimley
(52.2333°N, 2.2500°W)
Time: 04:23:52
(UTC+00:00)

Daily predictions for brighter satellites

Satellite Brightness Start Highest point End
(mag) Time Altitude Azimuth Time Altitude Azimuth Time Altitude Azimuth
Cosmos 2369 Rocket 3.8 00:10:56 30° NNE 00:10:56 30° NNE 00:13:42 10° NNE
USA 234 4.2 00:03:49 10° ENE 00:17:12 - W 00:07:47 38° ENE
COSMOS 2455 4.2 00:26:25 33° NNW 00:26:25 33° NNW 00:31:44 10° NNE
Cosmos 2227 Rocket 3.5 00:50:11 10° NNW 00:54:07 36° N 00:54:07 36° N
SL-16 R/B 3.0 01:15:09 55° NNE 01:15:09 55° NNE 01:20:11 10° NNW
ATLAS 2AS CENTAUR R/B 4.3 01:10:43 10° WNW 01:17:51 35° N 01:24:39 10° ENE
CZ-2D R/B 3.6 01:15:20 10° NNE 01:18:48 32° ENE 01:18:48 32° ENE
Cosmos 1943 Rocket 3.9 01:21:05 26° NNW 01:21:05 26° NNW 01:25:18 10° NNE
Lacrosse 5 4.5 01:29:27 12° E 01:29:27 12° E 01:29:58 10° E
Resurs 1-4 Rocket 3.4 01:22:23 10° NNE 01:25:56 35° ENE 01:25:56 35° ENE
ATLAS 5 CENTAUR R/B 3.8 01:30:41 23° NE 01:30:41 23° NE 01:32:34 10° NE
Cosmos 2297 Rocket 3.7 01:36:45 10° NNW 01:39:21 28° NNW 01:39:21 28° NNW
Cosmos 2082 4.3 01:42:49 10° NNW 01:47:38 53° NNE 01:47:38 53° NNE
Cosmos 2369 Rocket 3.9 01:52:43 24° NW 01:52:52 24° NW 01:57:26 10° NNE
USA 234 3.3 01:46:27 10° E 01:52:57 72° NNE 01:55:07 45° NW
CZ-4C R/B 4.0 01:51:44 22° NW 01:54:39 31° N 02:00:52 10° ENE
Cosmos 1697 Rocket 4.0 02:01:35 30° ESE 02:01:35 30° ESE 02:06:25 10° NE
SL-8 Rocket 4.3 01:55:59 10° NNW 02:00:56 56° NNW 02:00:56 56° NNW
Cosmos 1980 Rocket 4.1 02:05:36 18° ESE 02:06:56 20° E 02:10:52 10° NE
Cosmos 2263 Rocket 3.9 02:04:14 10° NNW 02:09:16 31° NE 02:14:17 10° ESE
Cosmos 2366 rocket 4.2 02:11:08 10° NNW 02:16:29 62° NW 02:16:29 62° NW
Cosmos 2218 Rocket 4.2 02:11:31 10° NNW 02:16:58 60° NW 02:16:58 60° NW
Gbstr 26 Del rocket 4.4 02:18:37 61° W 02:20:17 85° S 02:28:04 10° ESE
CZ-3B R/B 3.7 02:25:23 27° E 02:25:23 27° E 02:29:01 10° ENE
ADEOS II 2.5 02:20:10 10° NNE 02:25:22 57° E 02:25:24 57° ESE
Cosmos 1151 Rocket 4.3 02:26:32 38° ENE 02:26:32 38° ENE 02:30:02 10° NNE
ARIANE 5 R/B 3.8 02:25:29 10° NNE 02:30:05 33° E 02:31:22 29° SE
Cosmos 1656 3.6 02:32:28 78° ENE 02:32:28 78° ENE 02:37:45 10° NNE
IDEFIX/ARIANE 42P 4.2 02:29:51 10° NNE 02:34:28 30° E 02:36:51 21° SE
IRS-1D 3.6 02:29:58 10° NNE 02:35:22 74° ESE 02:35:24 74° ESE
Cosmos 2227 Rocket 4.0 02:34:22 10° NW 02:35:52 18° NW 02:35:52 18° NW
Cosmos 2181 Rocket 4.2 02:43:38 53° WNW 02:43:38 53° WNW 02:49:35 10° N
SL-08 R/B 4.4 02:37:11 10° NNW 02:43:34 70° W 02:43:53 69° WSW
CBERS-1 3.9 02:39:23 10° NNE 02:44:31 82° E 02:44:31 82° E
Meteor 1-22 4.5 02:40:29 10° NNW 02:45:54 86° WNW 02:45:54 86° WNW
IRS-1C 4.4 02:46:20 10° NNE 02:51:40 62° ESE 02:52:48 50° SSE
Meteor 1-20 Rocket 4.0 02:50:03 10° NNW 02:55:32 80° W 02:55:51 77° SW
USA 307 4.0 02:57:59 38° ESE 02:57:59 38° ESE 03:01:11 10° ENE
SJ 16-02 2.7 02:53:11 10° NNW 02:57:20 39° ENE 03:01:27 10° SE
Cosmos 1238 Rocket 4.4 02:50:43 10° N 02:57:21 63° ENE 03:03:29 10° SSE
SL-16 R/B 3.9 03:00:15 23° WNW 03:00:15 23° WNW 03:03:25 10° NW
USA 267 3.6 02:52:16 10° ENE 02:58:40 52° SE 03:00:27 42° S
Cosmos 1782 3.7 02:59:09 43° ESE 02:59:25 44° E 03:03:17 10° NNE
USA 308 3.8 03:01:02 40° ESE 03:01:02 40° ESE 03:04:24 10° ENE
CZ-2D R/B 2.8 02:55:27 10° N 03:00:07 40° NW 03:00:07 40° NW
Cosmos 389 Rocket 4.0 03:02:26 33° E 03:02:29 33° E 03:05:44 10° NNE
Cosmos 1606 4.2 03:04:58 29° NNW 03:04:58 29° NNW 03:07:03 10° N
Cosmos 2278 4.3 03:02:26 37° SSE 03:04:18 52° ESE 03:09:50 10° NE
ATLAS CENTAUR R/B 4.1 02:51:05 10° W 03:07:11 64° N 03:12:56 10° E
Resurs 1-4 Rocket 2.9 03:02:26 10° N 03:07:00 35° WNW 03:07:00 35° WNW
Lacrosse 5 2.0 03:08:39 59° SSE 03:09:04 61° SE 03:14:05 10° ENE
ATLAS 2AS CENTAUR R/B 3.7 03:03:00 10° NW 03:10:31 50° NNE 03:17:30 10° ESE
H-2A R/B 3.3 03:06:48 10° SE 03:10:58 43° ENE 03:15:13 10° N
NOSS 2-2 (D) 4.5 03:10:04 48° W 03:11:18 57° SW 03:18:40 10° SSE
NPP 4.3 03:06:36 10° N 03:11:36 40° WNW 03:11:43 39° WNW
ATLAS 5 CENTAUR R/B 2.7 03:12:12 32° NW 03:12:52 34° NNW 03:17:28 10° NE
Cosmos 2369 3.7 03:11:30 53° SSW 03:12:55 82° ESE 03:18:42 10° NNE
SL-08 R/B 3.5 03:16:44 52° WNW 03:16:44 52° WNW 03:20:37 10° NNW
Landsat 5 4.3 03:19:07 10° SSE 03:23:32 56° ENE 03:27:55 10° N
ADEOS Rocket 4.2 03:18:49 10° SE 03:24:58 43° ENE 03:30:35 10° N
Cosmos 1818 4.3 03:24:47 35° WNW 03:26:10 41° NNW 03:31:22 10° NE
Cosmos 1470 Rocket 4.1 03:24:27 10° NNW 03:27:56 43° WNW 03:27:56 43° WNW
Spot 4 Rocket 4.2 03:25:38 10° NNE 03:30:48 71° ESE 03:33:40 27° S
IRS-P3 4.1 03:25:32 10° NNE 03:30:51 66° WNW 03:32:20 46° SW
MSX 4.3 03:27:18 10° NNE 03:33:03 61° ESE 03:37:58 14° S
ERS-2 3.7 03:30:20 10° SE 03:33:44 37° ENE 03:37:09 10° N
Timation 1 Rocket 4.5 03:29:13 10° NW 03:34:58 49° WSW 03:40:42 10° S
USA 234 3.2 03:29:41 10° SE 03:36:08 60° SW 03:42:26 11° WNW
CZ-4B R/B 4.0 03:33:09 10° N 03:37:52 40° WNW 03:38:39 38° W
Cosmos 2360 4.2 03:37:39 40° SW 03:39:50 78° WNW 03:45:37 10° NNE
Cosmos 1898 Rocket 3.9 03:35:18 10° NNW 03:40:32 65° ENE 03:45:47 10° SE
X-37B 2.9 03:42:02 16° SSE 03:42:02 16° SSE 03:43:04 10° SE
Iridium 2 3.5 03:42:11 60° SSW 03:42:49 83° W 03:46:36 10° N
Cosmos 1821 Rocket 4.4 03:37:18 10° NNW 03:43:07 40° W 03:44:40 34° WSW
CZ-4C R/B 4.0 03:38:46 10° NW 03:44:52 40° NNE 03:52:02 10° E
BREEZE M DEB (TANK) 4.5 03:25:33 10° WNW 03:44:52 54° SW 03:50:08 10° SE
Cosmos 1697 Rocket 2.8 03:43:20 38° WSW 03:45:16 58° NW 03:50:50 10° NNE
SL-8 R/B 4.4 03:45:53 34° SSW 03:45:53 34° SSW 03:49:58 10° SE
Cosmos 1933 4.4 03:49:33 29° WNW 03:49:33 29° WNW 03:52:50 10° N
Cosmos 1980 Rocket 2.1 03:47:24 31° SSW 03:50:15 86° WNW 03:55:57 10° NNE
Cosmos 972 Rocket 4.1 03:49:28 39° WSW 03:50:52 53° WNW 03:55:46 10° NNE
Cosmos 1515 Rocket 3.7 03:50:07 43° SW 03:51:13 56° WNW 03:55:36 10° N
IRIDIUM 114 4.5 03:47:48 10° N 03:53:04 75° E 03:58:16 10° S
Cosmos 2263 Rocket 2.1 03:48:01 10° NW 03:53:39 67° WSW 03:59:16 10° SSE
Cosmos 1934 Rocket 4.0 03:48:40 10° NNW 03:54:31 52° W 03:59:39 14° SSW
Cosmos 921 Rocket 3.2 03:52:49 23° S 03:55:19 64° ESE 03:59:29 10° NNE
Meteor 1-26 Rocket 4.2 03:53:50 32° SW 03:56:08 55° WNW 04:01:28 10° N
Cosmos 2322 Rocket 3.8 03:52:16 10° SSE 03:57:16 33° ESE 04:02:19 10° NE
Cosmos 1844 Rocket 3.9 03:54:08 10° NNW 03:59:30 43° NE 04:04:52 10° ESE
Cosmos 1500 3.1 03:57:00 10° NNW 04:00:49 61° W 04:03:18 20° S
Cosmos 1328 Rocket 4.5 04:01:06 29° W 04:01:34 30° WNW 04:05:31 10° N
IRIDIUM 103 4.3 03:56:57 10° N 04:02:13 88° E 04:07:26 10° S
Cosmos 1151 Rocket 4.1 04:03:24 26° WNW 04:03:40 26° WNW 04:07:22 10° N
Cosmos 1812 2.8 04:01:20 18° S 04:04:10 77° E 04:08:02 10° NNE
ADEOS II 3.1 04:00:21 10° N 04:04:48 28° WNW 04:06:20 24° W
USA 305 2.8 04:03:31 37° WSW 04:05:10 85° SSE 04:09:26 10° ENE
Cosmos 1933 Rocket 4.3 04:01:57 10° NNW 04:05:49 31° W 04:05:56 31° W
SL-16 R/B 3.2 04:00:55 10° S 04:06:16 45° ESE 04:11:40 10° NE
Cosmos 1666 2.9 04:02:35 10° N 04:06:27 74° ENE 04:10:14 10° SSE
Cosmos 1937 Rocket 3.6 04:01:16 10° NNW 04:06:27 76° ENE 04:11:35 10° SSE
CZ-4C R/B 3.1 04:06:18 23° SSW 04:08:15 51° W 04:11:44 10° NNW
Cosmos 192 4.3 04:05:47 25° SW 04:08:38 74° WNW 04:13:35 10° NNE
ARIANE 5 R/B 2.9 04:04:29 10° N 04:09:20 44° WNW 04:11:41 26° WSW
USA 306 2.8 04:07:32 34° WSW 04:09:21 88° SSE 04:13:38 10° ENE
Cosmos 2227 4.4 04:06:33 10° NW 04:11:58 47° WSW 04:17:19 10° S
IDEFIX/ARIANE 42P 2.8 04:09:12 10° N 04:14:18 51° WNW 04:17:39 21° SW
COSMOS 2441 4.3 04:11:31 10° N 04:16:26 71° WNW 04:20:46 13° SSW
Meteor 1-10 Rocket 4.3 04:11:00 10° S 04:16:48 87° ESE 04:22:44 10° NNE
Cosmos 1153 Rocket 4.5 04:10:33 10° NNW 04:16:58 80° W 04:23:18 10° S
ASTEX 1 4.0 04:13:30 10° N 04:18:08 38° WNW 04:20:50 22° SW
CZ-2C R/B 2.8 04:13:19 10° NNE 04:18:27 71° ESE 04:23:37 10° S
Cosmos 1733 Rocket 3.7 04:14:07 10° N 04:18:27 57° ENE 04:22:42 10° SSE
Cosmos 2228 Rocket 3.2 04:17:08 20° SSW 04:19:59 55° WNW 04:24:22 10° N
IRIDIUM 106 4.3 04:15:19 10° N 04:20:32 68° W 04:25:42 10° S
Cosmos 1605 Rocket 4.2 04:15:09 10° NNW 04:21:19 52° W 04:27:28 10° SSW
SAR-Lupe-4 4.3 04:19:04 10° SSE 04:22:36 56° ENE 04:26:09 10° N
CZ-2D R/B 4.2 04:19:07 10° N 04:22:59 36° WNW 04:24:57 23° WSW
Cosmos 1869 Rocket 3.8 04:21:11 10° NNW 04:25:21 45° W 04:29:28 10° SSW
SL-4 R/B 4.1 04:21:40 10° SSW 04:25:23 24° SE 04:29:15 10° E
Meteor 1-5 Rocket 4.2 04:20:19 10° NNW 04:25:25 49° W 04:30:35 10° SSW
Cosmos 1763 Rocket 3.9 04:22:50 10° SSW 04:28:06 67° ESE 04:33:23 10° NNE
Meteor 2-6 Rocket 4.3 04:26:14 10° SSW 04:31:52 63° WNW 04:37:44 10° N
CZ-2C R/B 3.2 04:29:38 10° N 04:33:11 40° WNW 04:35:35 18° SW
SAR-Lupe-1 4.3 04:31:11 10° SSE 04:34:44 73° ENE 04:38:20 10° NNW
SJ 16-02 2.1 04:31:58 10° NW 04:35:49 30° WSW 04:39:38 10° SSW
Cosmos 1782 4.2 04:34:46 19° W 04:35:58 22° WNW 04:39:09 10° NNW
USA 307 2.9 04:34:10 20° W 04:37:04 79° NNW 04:41:21 10° ENE
Meteor 1-4 Rocket 2.4 04:33:50 11° SSW 04:37:07 64° WNW 04:40:39 10° N
Cosmos 389 Rocket 3.9 04:36:18 20° W 04:37:16 22° WNW 04:40:09 10° NNW
NOSS 3-4 (A) 3.8 04:31:05 10° NW 04:37:57 76° SW 04:45:35 10° SE
NOSS 3-4 (C) 3.8 04:31:11 10° NW 04:38:03 76° SW 04:45:42 10° SE
PSLV R/B 3.4 04:33:56 10° N 04:38:09 74° WNW 04:42:20 10° SSW
USA 276 2.4 04:36:45 23° WSW 04:38:32 55° S 04:41:41 10° ESE
USA 308 2.9 04:37:13 19° W 04:40:16 78° NNW 04:44:33 10° ENE
Cosmos 44 3.4 04:38:02 18° WSW 04:41:18 57° NW 04:46:01 10° NE
BREEZE-M DEB (TANK) 4.2 04:35:46 11° SW 04:41:18 26° S 04:44:04 10° ESE
USA 267 3.3 04:35:23 10° ENE 04:41:56 77° NNW 04:47:47 14° WSW
BREEZE-M DEB (TANK) 3.8 04:40:44 17° SW 04:43:07 54° SSE 04:51:24 10° E
PAYLOAD A 3.8 04:38:50 10° N 04:43:32 66° WNW 04:48:10 10° SSW
Cosmos 1743 3.4 04:41:17 10° N 04:45:04 58° ENE 04:48:49 10° SSE
ERBS 2.6 04:43:59 15° SW 04:46:37 62° SE 04:49:56 10° ENE
H-2A R/B 3.0 04:43:19 10° SSW 04:47:05 27° W 04:50:56 10° NW
Cosmos 990 Rocket 4.4 04:42:27 10° NW 04:47:14 38° WSW 04:52:01 10° S
Cosmos 2278 4.4 04:44:21 15° WSW 04:48:39 38° NW 04:53:59 10° NNE
NOSS 3-3 (A) 4.0 04:44:08 12° SW 04:49:43 80° NW 04:56:35 10° NE
NOSS 3-3 (C) 4.0 04:44:18 12° SW 04:49:50 81° NW 04:56:39 10° NE
Cosmos 1725 Rocket 4.4 04:45:19 10° N 04:51:31 69° ENE 04:57:40 10° SSE
Lacrosse 5 2.2 04:47:50 14° W 04:52:09 58° NNW 04:57:10 10° ENE
Cosmos 540 Rocket 4.1 04:50:21 10° S 04:55:25 61° ESE 05:00:33 10° NNE
Cosmos 468 Rocket 4.0 04:50:56 10° SSW 04:56:13 71° WNW 05:01:30 10° NNE
DEBRIS 4.5 04:55:54 11° SW 04:57:12 13° SSW 04:59:13 10° S
CZ-4B R/B 1.5 04:54:48 10° S 04:57:51 44° W 05:01:01 10° NNW
Cosmos 2100 Rocket 4.1 04:51:33 10° NNW 04:57:52 65° W 05:04:09 10° S
ATLAS 5 CENTAUR R/B 3.7 04:55:00 10° NW 04:58:52 23° N 05:03:14 10° NE
GENESIS II 4.4 04:56:03 11° SW 04:59:49 63° NW 05:03:51 10° NE
Cosmos 1727 Rocket 4.2 04:54:33 10° SSW 05:00:47 56° WNW 05:07:01 10° N
ALOS 2.6 04:56:16 10° NNE 05:00:58 72° ESE 05:05:37 10° S
ATLAS 2AS CENTAUR R/B 2.9 04:54:23 10° NW 05:01:55 68° SW 05:08:49 10° SSE
CZ-4B R/B 4.4 04:58:37 10° NNE 05:02:05 36° E 05:05:26 10° SSE
Cosmos 1802 Rocket 4.0 04:56:45 10° NNW 05:02:56 76° W 05:09:10 10° S
Meteor 1-11 Rocket 4.2 04:58:17 10° NNW 05:03:39 39° W 05:08:53 10° SSW
CZ-4B R/B 4.5 04:59:26 10° NNE 05:03:43 69° ESE 05:08:08 10° S
ERS-2 3.3 05:04:29 10° SSW 05:07:24 22° W 05:10:21 10° NW
Okean 1 4.3 05:03:45 10° S 05:07:41 52° E 05:11:38 10° NNE
ADEOS Rocket 3.4 05:04:10 10° S 05:10:32 44° W 05:16:20 10° NNW
Cosmos 1484 Rocket 2.8 05:06:34 10° NNE 05:10:34 86° WNW 05:14:34 10° SSW
Cosmos 1689 Rocket 2.0 05:07:47 10° S 05:10:44 73° WSW 05:13:44 10° NNW
COSMO-SKYMED 1 2.6 05:09:02 10° SSE 05:13:23 89° NE 05:17:46 10° NNW
Cosmos 1459 Rocket 4.1 05:07:39 10° NNW 05:13:35 54° W 05:19:26 10° SSW
X-37B 2.9 05:15:02 10° SW 05:16:28 12° SSW 05:17:54 10° S
Cosmos 1536 3.7 05:13:19 10° NNW 05:16:52 29° W 05:20:24 10° SSW
METEOR-M 4.3 05:12:32 10° NNE 05:17:56 83° ESE 05:23:17 10° SSW
Meteor 1-27 Rocket 4.0 05:13:41 10° SSW 05:19:29 53° WNW 05:25:17 10° N
USA 234 4.4 05:15:29 10° S 05:20:06 20° SW 05:24:46 10° W
Meteor 1-31 Rocket 2.7 05:18:14 10° NNE 05:22:04 79° WNW 05:25:55 10° SSW
Cosmos 2298 Rocket 4.0 05:17:02 10° NNW 05:22:23 78° WSW 05:27:41 10° SSE
Cosmos 2360 Rocket 2.5 05:18:28 10° SSW 05:24:07 76° ESE 05:29:48 10° NNE
Cosmos 2123 Rocket 4.2 05:17:59 10° S 05:24:15 87° E 05:30:36 10° N
deb Chang Zheng 4 3.7 05:21:36 10° N 05:25:50 54° WNW 05:30:00 10° SW
